Showing default

SDX01, 62459

Orbit data source: Space-Track

SDX01, 62459 is a payload satellite owned by ISRO (IN) in LEO that was launched on Mon, 30 Dec 2024 UTC via a PSLV launch vehicle from the Sirharikota (SRI). Payload-class satellites include a variety of spacecraft equipped with specific instruments for various scientific and technological missions. These include communications satellites like Starlink; space stations such as the ISS; scientific satellites like the Hubble; Earth observation satellites from companies like Planet Labs, Umbra, and HawkEye 360; GPS; miniature CubeSats for education and research; and military/defense satellites.

Loading next visibility...
Identifier
62459, 2024-253A
Orbit
LEO
Last TLE update
17 hours ago
Origin
Manufacturer
ISRO
Mission
Operational Civil Technology
Bus & Motor
SPADEX, Unknown motor
Mass
220 kg wet, ~180 kg dry
Launch date (UTC)
2024-12-30 (6 months ago)
Launch vehicle
PSLV
Launch site
Sirharikota (SRI)
Object type
Payload
Rocket body
Debris
Shape & HBR
Box + 2 Pan, 2.5 m
Radar Cross Section
0.901 m², Large (>1 m²)

Expand to show TLE details & history

TLE from 17 hours ago
0 SDX01
1 62459U 24253A   25182.39951387  .00006343  00000-0  16879-3 0  9995
2 62459  54.9970 158.6096 0009266  42.9160 317.2590 15.39541439 28070
Epoch: 2025-07-01T09:35Z
TLE epoch observation values (Epoch: 2025-07-01T09:35:17.998Z)
Latitude
-0.00001°
Longitude
95.08908°
Altitude
443.922 km
Speed
7.649 km/s
True Right ascension
10h 34m 26s
True Declination
0° 00' 00"
Sunlit
Object was in daylight at epoch
Visualization orbit readout
Latitude
43.76703°
Longitude
133.66306°
Altitude
445.867 km
Speed
7.654 km/s
Apparent Right ascension
07h 58m 28s
Apparent Declination
17° 54' 48"
Sunlit
Object is in daylight
Visualization observer readout
Local Sidereal Time
14:39:43
Azimuth
290.24° WNW
Elevation
3.827°
Doppler factor
1
Orbital elements
Apogee altitude
453.752 km
Perigee altitude
441.102 km
Semi-major axis
6,825.564 km
Eccentricity
0.00093
Inclination
54.997°
RAAN
158.6096°
Arg. of periapsis
42.916°
True anomaly
Unknown
Mean anomaly
317.259°
Eccentric anomaly
Unknown
Mean motion
3.84889 °/min
Orbital period
93.53 mins
BSTAR
0.00016879
Loading maneuver chart data...
Loading SW <> Apogee altitude chart data...
Loading historical data...
Loading historical data...
Loading historical data...
Loading historical data...
Loading historical data...
Loading historical data...
Loading historical data...
Other satellites on launch #253 in the year 2024 (2024-12-30 UTC)

SDX01 Visibility forecast

Observer location: undefined°, undefined°

Span
Click to sort rows by Start time (UTC) header in descending order
Start Az.
Max El. time (UTC)
Max El. Az.
Max El.
End time (UTC)
End Az.
5 mins2025-07-02 07:54:33.538Z323.199° NNW2025-07-02 07:56:33.538Z8.408° NNE40.279°2025-07-02 07:59:33.538Z120.337° SE
4 mins2025-07-03 00:44:33.538Z230.212° WSW2025-07-03 00:45:33.538Z238.433° WSW42.268°2025-07-03 00:48:33.538Z45.204° ENE
|